Wind_Gust
11 11 10 10 11 10 9 10 10 10 9 9 9 9 10 8 9 10 9 10 10 11 12 14 13 12 12 12 10 12 12 12 14 11 13 13 14 15 18 18 17 17
11 11 10 10 9 9 10 10 11 11 10 10 10 9 9 10 9 10 10 10 10 11 12 13 12 11 11 11 10 11 12 11 13 11 13 13 14 15 16 16 16 16
12 12 13 12 11 10 11 10 10 10 11 10 8 10 10 10 10 9 10 10 11 10 11 12 11 11 10 10 11 11 11 12 12 12 12 12 13 14 15 16 15 15
13 13 13 13 13 13 12 12 12 12 12 12 12 12 12 11 10 10 11 10 11 11 11 11 11 11 10 11 11 12 10 12 11 12 13 12 12 13 15 15 14 14
13 14 14 13 13 13 11 13 14 13 13 12 11 11 12 11 11 12 12 11 10 11 11 11 10 10 11 11 10 11 10 11 10 12 13 13 13 13 13 14 14 14
12 14 14 14 13 13 13 14 15 14 13 12 12 12 12 12 12 13 12 11 12 11 11 10 11 11 11 11 10 9 10 11 12 12 13 13 13 13 13 13 14 14
12 13 13 13 13 13 13 13 12 12 12 10 12 12 12 13 13 14 14 12 12 12 12 11 10 10 10 11 11 11 9 11 12 13 13 13 14 12 12 12 13 14
13 13 14 14 14 14 14 15 13 13 12 13 13 13 13 14 15 13 12 13 13 13 12 12 12 10 10 11 12 9 9 8 10 11 12 13 13 13 12 12 12 13
13 14 14 14 14 14 15 16 14 13 14 14 14 14 14 14 14 14 14 13 14 13 13 11 11 11 10 11 10 11 11 9 9 10 11 12 13 14 14 12 12 12
14 14 14 15 15 15 15 15 14 13 14 14 14 14 15 13 14 15 14 14 14 14 13 12 11 11 11 11 11 11 11 12 10 9 11 11 13 15 14 13 13 12
15 15 15 16 16 15 15 15 15 15 14 15 15 15 15 15 15 15 15 15 14 15 15 14 13 12 11 11 11 11 11 10 10 11 10 11 11 13 10 13 12 11
16 15 16 16 16 16 15 15 15 15 15 15 16 16 15 16 16 15 15 15 15 15 15 14 12 11 12 12 12 10 10 10 10 11 11 12 12 12 14 13 11 12
17 17 16 16 16 16 15 16 16 15 16 17 15 16 16 16 16 17 15 16 15 14 14 14 13 13 11 11 12 13 13 12 11 11 11 10 11 12 13 12 12 12
17 16 16 17 16 16 16 16 16 16 16 16 16 17 17 18 18 17 16 16 16 15 14 11 12 13 12 12 12 12 12 12 12 11 11 11 10 11 12 12 11 10
15 15 16 16 17 17 17 17 17 17 16 17 16 17 17 17 17 17 18 18 16 16 15 14 14 12 12 13 11 12 12 12 13 12 11 11 11 11 11 11 10 10
17 16 16 17 17 18 18 17 18 18 18 18 18 18 18 17 17 18 18 18 17 16 15 14 14 13 11 11 9 13 15 14 11 11 11 11 11 11 12 11 10 9
17 17 17 18 17 17 17 19 20 19 18 18 18 18 18 17 18 18 19 17 17 16 15 14 14 13 13 11 10 7 12 13 13 11 10 11 10 10 11 11 10 10
16 17 18 18 18 19 19 20 19 20 20 19 20 19 19 18 19 20 19 17 16 16 15 15 15 13 15 13 12 10 8 13 13 13 11 11 10 11 11 10 10 9
16 17 18 18 19 20 19 19 21 21 21 20 21 20 18 20 21 20 19 17 17 17 16 16 14 15 16 17 13 13 12 11 14 13 12 11 10 10 11 10 10 10
16 17 18 18 18 19 19 21 21 22 20 21 20 19 20 20 20 21 19 19 19 18 17 18 15 15 15 15 14 14 14 11 14 14 11 13 13 12 10 9 9 10
15 16 17 17 17 18 19 20 21 20 21 21 21 21 21 22 23 22 21 20 20 19 19 18 15 17 16 16 15 14 13 10 14 14 13 14 14 12 9 9 9 10
15 16 16 17 18 19 19 20 20 21 20 20 20 20 21 23 24 23 20 21 21 21 20 19 14 20 18 17 16 13 13 14 14 14 14 16 15 14 10 11 10 9
17 17 16 16 17 18 19 19 20 21 19 19 20 21 21 22 23 21 21 21 21 21 20 20 16 19 19 18 16 15 11 15 15 17 16 16 14 12 12 10 10 9
18 19 19 18 19 20 19 19 18 17 17 16 19 20 22 22 22 22 22 20 19 21 25 20 18 18 20 19 18 18 14 16 17 16 14 14 14 12 11 11 11 14
18 17 18 19 20 20 19 20 19 19 17 16 18 20 22 23 24 24 22 21 19 20 13 21 20 17 21 20 20 20 17 16 17 16 16 14 14 14 12 12 13 12
17 18 18 19 21 21 20 20 20 19 19 19 19 21 22 21 20 20 19 19 18 21 20 22 22 17 20 19 19 19 17 17 16 17 16 15 14 15 14 12 13 13
Wind_Speed
3 2 2 3 3 2 2 2 1 2 3 2 2 2 3 1 1 1 2 2 1 2 2 2 2 2 3 3 4 2 3 5 4 3 2 3 4 3 4 3 3 3
4 4 3 2 2 3 2 2 3 3 3 4 3 2 2 2 2 2 1 2 2 2 2 2 2 2 3 3 3 3 3 3 4 2 3 4 4 2 3 3 3 3
5 4 4 4 3 3 4 3 3 3 3 3 2 2 2 2 3 2 1 2 1 1 3 2 1 1 2 3 3 2 4 3 5 1 2 3 5 3 3 3 3 3
5 5 4 5 4 5 4 4 3 3 3 3 3 3 3 3 3 2 2 3 3 3 3 2 2 2 2 2 3 3 2 2 4 2 2 2 2 3 2 2 2 3
5 5 5 4 4 4 3 5 4 5 6 5 4 3 3 2 2 3 3 3 4 3 3 3 2 2 2 2 3 2 3 2 2 2 2 3 2 2 2 2 2 3
6 6 6 5 4 3 3 5 5 5 4 5 6 4 3 3 3 4 4 4 3 3 3 3 2 1 2 2 2 2 2 3 0 2 3 2 2 2 2 2 2 3
6 5 5 4 4 5 4 4 4 4 3 2 2 2 3 3 4 5 5 4 4 3 3 3 3 2 2 2 2 4 4 1 0 2 3 2 2 2 2 2 2 3
5 5 5 4 4 4 4 5 4 3 3 3 3 3 2 3 5 4 3 4 4 4 3 3 2 2 0 1 2 3 3 1 1 2 2 2 2 2 2 2 3 3
5 5 5 5 5 4 5 6 4 4 4 4 4 4 4 4 5 5 5 4 4 3 4 4 3 2 1 0 3 4 4 2 1 3 2 2 2 1 2 3 3 3
5 5 5 6 6 5 5 5 4 3 3 4 4 3 5 4 5 5 5 4 4 5 4 2 3 3 3 4 2 3 3 4 3 2 1 1 2 1 2 2 3 3
6 6 6 6 6 5 6 6 5 5 4 5 4 5 6 5 5 5 5 6 5 5 6 5 6 5 2 2 1 1 1 2 5 2 0 2 1 1 3 1 2 4
7 6 6 7 6 6 6 5 5 5 5 5 6 6 5 5 5 5 5 7 8 7 6 5 3 2 2 2 2 3 2 4 4 5 2 2 1 1 2 1 2 4
7 7 6 6 6 5 5 5 6 6 6 6 5 6 6 6 6 6 5 6 6 5 4 4 4 3 5 2 1 4 7 5 4 5 3 3 2 1 2 2 2 3
6 6 6 5 4 5 5 5 6 6 6 6 5 6 6 7 7 6 5 6 6 6 4 1 6 5 1 3 2 1 6 6 3 2 3 3 2 2 1 1 2 2
3 4 5 6 6 5 5 5 6 6 6 6 6 6 6 6 6 6 5 7 9 6 5 4 5 5 5 4 3 3 0 2 3 4 4 2 1 1 1 1 2 0
5 4 5 5 6 5 7 7 7 6 6 6 6 7 6 6 7 5 6 7 7 6 3 5 6 3 5 8 7 4 2 1 2 5 4 2 2 1 1 3 1 2
5 5 5 4 5 5 4 5 7 6 6 7 7 7 6 6 5 5 6 6 7 5 4 4 4 4 9 9 8 7 3 2 2 4 6 4 1 2 2 4 2 1
6 5 2 7 8 7 7 7 4 5 6 7 7 7 6 5 5 5 5 5 4 5 2 2 3 8 12 11 10 7 4 3 3 3 4 5 3 2 3 2 1 1
4 5 4 3 5 4 4 3 5 7 7 5 5 6 4 4 6 5 6 6 5 3 3 3 3 11 14 14 11 12 11 7 3 2 5 6 5 4 4 0 1 0
3 5 4 4 3 4 4 4 5 6 5 5 5 5 4 4 5 7 6 6 5 6 6 5 3 10 13 13 11 11 12 8 4 2 4 5 7 6 4 1 1 2
4 4 4 4 4 5 4 5 6 6 5 4 4 4 5 5 6 6 5 5 4 6 5 4 3 13 14 13 11 11 11 8 4 4 2 6 6 7 4 1 1 1
8 7 6 6 7 6 7 7 6 4 4 3 3 3 3 3 4 4 4 2 3 5 4 6 5 14 14 13 12 11 11 5 5 4 4 4 6 9 4 1 1 2
8 8 7 6 6 6 7 6 6 7 6 3 3 3 4 4 4 4 4 3 6 6 6 6 5 11 14 14 13 13 9 4 4 3 4 5 5 7 2 3 2 0
8 8 8 9 8 8 8 7 7 6 6 5 5 4 4 5 5 5 4 3 5 6 7 7 6 11 16 15 15 15 10 6 5 4 5 6 6 4 1 0 5 10
7 8 8 8 8 8 7 7 6 6 7 7 7 7 6 5 4 4 5 3 5 7 9 8 4 9 16 16 16 16 11 6 5 4 5 4 5 4 4 3 3 7
6 7 6 7 7 7 5 6 7 7 7 7 7 7 7 6 4 3 5 4 2 6 6 7 6 7 12 16 16 16 14 8 5 4 4 4 4 4 5 4 5 5
Wind_Direction
249 262 238 184 218 237 280 311 257 238 204 232 239 259 275 6 7 28 253 239 279 323 271 295 330 321 314 293 291 334 338 308 330 289 26 337 277 317 346 8 16 347
213 229 255 270 231 200 208 204 283 274 256 190 215 249 241 279 255 234 261 289 296 275 305 303 318 315 315 308 307 310 299 300 300 315 43 311 304 338 354 19 4 331
216 217 220 234 235 242 225 210 207 250 283 302 269 177 223 218 235 231 246 259 252 293 279 265 251 280 280 296 300 315 293 317 293 6 43 311 324 10 356 19 343 325
213 222 231 218 219 237 240 204 202 210 242 244 249 244 216 227 257 244 228 243 217 231 243 249 240 238 275 289 291 265 286 297 302 10 351 308 305 21 347 358 319 309
206 215 221 243 229 223 238 254 241 201 201 215 226 243 250 233 231 237 232 230 226 233 232 251 249 230 232 249 263 277 253 273 294 360 329 294 23 10 340 323 333 319
195 209 217 220 230 232 234 232 249 266 249 204 199 204 217 245 247 240 235 242 234 222 234 228 241 230 227 275 288 275 292 262 51 324 315 324 28 335 329 330 348 317
181 198 214 217 222 224 225 240 246 256 274 319 312 205 199 228 244 244 248 250 254 242 249 245 226 228 201 196 262 267 253 241 39 324 306 344 16 324 347 331 342 302
184 184 202 218 223 228 231 238 244 237 235 254 254 279 266 249 245 252 250 239 239 261 269 272 264 243 184 94 248 276 299 264 182 287 306 320 317 320 330 14 300 311
192 192 197 207 218 221 229 238 238 230 233 227 229 228 232 238 249 248 247 249 247 230 230 234 230 265 124 239 272 263 262 291 256 216 241 256 270 6 339 346 301 341
196 203 206 206 213 213 225 232 237 246 244 240 242 237 247 233 227 236 241 240 240 239 242 249 242 198 182 187 264 316 353 331 322 328 268 299 291 45 329 313 335 309
202 204 208 213 214 215 219 219 224 234 237 248 245 232 233 238 248 240 226 239 243 235 225 219 230 220 209 153 178 208 197 250 268 264 308 285 282 56 310 343 328 298
205 208 211 215 219 219 223 224 229 223 228 226 234 246 244 240 243 243 247 236 226 229 237 238 231 163 139 98 41 334 282 176 256 274 274 271 300 357 292 314 279 290
205 211 215 221 219 220 213 225 226 229 233 238 229 230 235 240 244 247 235 249 263 246 229 234 227 122 83 105 152 239 271 271 220 218 223 222 215 211 245 253 279 292
205 208 216 221 225 215 226 228 229 229 227 232 236 238 240 241 244 241 237 235 238 232 227 107 78 79 174 200 177 222 255 250 256 259 240 254 225 216 271 284 271 250
225 210 204 212 205 219 228 228 233 239 239 233 227 234 237 244 248 235 249 250 247 220 189 135 123 165 189 205 200 215 308 337 310 272 262 243 164 203 226 275 275 266
247 244 240 223 216 214 211 216 224 230 233 238 245 242 237 230 230 231 234 255 257 247 182 145 159 193 209 187 192 181 170 47 348 309 284 248 229 142 256 248 235 276
281 245 241 255 267 231 254 232 222 228 229 235 241 239 240 248 248 241 235 243 256 256 148 170 167 160 154 154 164 166 140 78 341 293 304 293 225 199 225 245 213 242
238 231 211 262 233 238 243 255 254 241 239 236 237 237 229 234 247 252 254 253 245 250 148 166 182 155 167 162 182 148 131 94 270 283 292 298 268 250 269 241 216 144
283 299 293 304 300 304 303 268 237 245 254 248 246 245 235 231 232 237 243 238 235 206 148 208 242 173 180 175 179 160 140 135 229 284 291 298 304 270 251 154 24 330
303 301 287 274 286 278 266 272 279 285 271 250 258 262 249 252 252 245 244 235 213 159 183 197 228 165 175 177 173 161 148 146 160 298 294 292 295 286 263 200 176 155
320 297 283 267 251 255 253 251 251 254 268 271 259 264 269 259 256 258 255 244 197 167 194 196 208 166 178 177 172 159 145 150 162 148 288 296 290 287 285 84 347 314
344 342 343 343 340 345 344 335 338 340 332 334 307 283 276 277 279 273 270 209 170 157 191 211 183 167 176 173 165 155 152 156 172 171 183 235 264 267 249 121 234 235
342 335 330 335 339 339 330 337 340 335 323 311 292 293 290 286 279 264 268 182 179 188 200 211 188 177 172 171 163 158 160 160 175 160 191 214 241 265 232 159 195 105
338 337 350 360 351 342 347 340 328 313 317 327 310 293 277 280 284 277 266 211 192 206 207 210 206 171 174 171 163 166 169 166 169 188 207 210 223 242 237 86 89 85
346 5 359 352 343 336 325 321 329 341 332 325 317 309 290 273 263 280 283 239 192 206 216 220 216 171 179 171 168 171 176 171 173 193 213 215 221 195 182 119 93 81
3 357 351 340 324 311 330 354 343 326 324 316 312 307 306 309 307 300 301 298 242 205 208 201 201 148 175 171 171 177 182 173 170 185 208 221 204 195 147 123 120 107